PDT,Max TemperatureF,Mean TemperatureF,Min TemperatureF,Max Dew PointF,MeanDew PointF,Min DewpointF,Max Humidity, Mean Humidity, Min Humidity, Max Sea Level PressureIn, Mean Sea Level PressureIn, Min Sea Level PressureIn, Max VisibilityMiles, Mean VisibilityMiles, Min VisibilityMiles, Max Wind SpeedMPH, Mean Wind SpeedMPH, Max Gust SpeedMPH,PrecipitationIn, CloudCover, Events, WindDirDegrees
2013-5-1,75,65,54,53,51,50,86,66,46,30.08,30.00,29.91,7,6,5,16,5,23,0.00,3,,32
2013-5-2,79,64,49,54,49,42,89,62,35,30.14,30.11,30.08,7,6,5,14,4,17,0.00,0,,278
2013-5-3,94,72,50,46,41,35,74,44,13,30.08,29.92,29.83,10,6,4,28,7,33,0.00,0,,316
2013-5-4,69,58,47,51,49,42,89,72,55,29.82,29.77,29.74,8,5,1,14,6,106,0.00,4,,268
2013-5-5,71,64,57,52,49,47,80,62,44,29.87,29.81,29.75,8,7,5,31,14,40,T,7,,166
2013-5-6,75,65,55,55,51,46,93,67,41,30.00,29.92,29.86,10,8,2,22,10,29,0.04,7,Rain,165
2013-5-7,74,63,52,52,49,46,89,64,38,30.09,30.02,29.99,10,10,9,20,5,25,T,5,,273
2013-5-8,70,60,50,52,50,48,93,70,47,30.14,30.11,30.08,10,9,4,22,8,26,0.00,5,,292
2013-5-9,66,59,51,52,51,50,96,77,58,30.16,30.13,30.09,10,9,6,26,12,31,0.00,4,,297
2013-5-10,72,61,49,54,51,47,96,77,57,30.17,30.13,30.08,10,7,2,22,8,26,0.00,3,,310
2013-5-11,74,63,52,55,52,49,100,75,49,30.12,30.10,30.06,10,4,0,14,4,22,0.00,4,Fog,309
2013-5-12,78,66,53,56,53,50,100,70,40,30.12,30.07,30.02,10,5,0,18,5,21,0.00,3,Fog,308
2013-5-13,70,61,52,54,52,50,100,79,57,30.08,30.04,30.01,10,6,0,15,6,20,0.00,5,Fog,315
2013-5-14,67,60,52,52,50,48,96,74,52,30.07,30.04,30.01,10,8,3,21,9,25,0.00,7,,294
2013-5-15,66,58,50,50,49,48,89,73,56,30.09,30.05,30.02,9,7,3,22,9,26,0.00,5,,293
2013-5-16,67,58,48,53,51,46,96,80,63,30.04,30.00,29.96,10,7,2,24,9,30,0.00,6,,298
2013-5-17,69,59,49,52,49,46,100,74,47,30.08,30.01,29.97,10,6,0,26,10,33,0.00,4,Fog,296
2013-5-18,71,58,45,49,47,44,100,74,47,30.11,30.08,30.06,10,9,6,26,10,33,0.00,0,,300
2013-5-19,75,61,47,52,48,46,93,69,44,30.08,30.01,29.94,10,7,2,26,11,33,0.00,1,,309
2013-5-20,85,66,46,52,48,39,89,56,22,29.98,29.95,29.93,10,7,4,20,6,23,0.00,0,,314
2013-5-21,77,62,46,51,48,44,89,65,41,29.97,29.94,29.90,10,6,3,28,11,33,0.00,3,,269
2013-5-22,66,55,43,47,42,40,100,71,42,29.94,29.90,29.87,10,6,2,35,15,43,0.00,2,,294
2013-5-23,64,53,42,44,42,39,92,68,43,30.00,29.97,29.93,10,8,4,30,11,41,0.00,0,,300
2013-5-24,69,55,41,46,43,37,89,67,45,30.05,30.00,29.95,10,8,5,22,9,25,0.00,2,,260
2013-5-25,66,55,44,48,45,42,92,72,52,30.09,30.05,30.00,10,8,6,21,9,28,0.00,4,,269
2013-5-26,70,60,49,52,50,46,93,73,52,30.13,30.08,30.05,10,9,5,28,12,33,0.00,4,,299
2013-5-27,73,62,50,51,50,48,96,70,44,30.11,30.03,29.98,10,7,0,37,17,43,0.00,4,Fog,301
2013-5-28,71,61,51,55,52,48,100,79,57,30.03,29.94,29.86,10,6,0,31,15,37,0.00,3,Fog,297
2013-5-29,71,61,50,54,50,48,96,72,47,29.93,29.89,29.85,10,8,4,35,14,40,0.00,2,,300
2013-5-30,70,60,49,48,47,45,93,69,44,29.95,29.90,29.88,9,7,5,30,14,36,0.00,0,,301
2013-5-31,79,64,48,49,47,42,93,61,28,29.96,29.91,29.85,10,7,3,26,9,33,0.00,0,,311